Regional Weather Roundup
Issued by NWS

Home | Current Version | Previous Version | Graphics & Text | Print | Product List | Glossary On
Versions: 1 2 3 4 5 6 7 8 9 10 11 12 13 14 15 16 17 18 19 20 21 22 23 24 25 26 27 28 29 30 31 32 33 34 35 36 37 38 39 40 41 42 43 44 45 46 47 48 49 50
000
ASUS43 KLSX 272059
RWRMO

WEATHER SUMMARY FOR MISSOURI
NATIONAL WEATHER SERVICE SPRINGFIELD MO
400 PM CDT MON JUL 27 2015

NOTE: "FAIR" INDICATES FEW OR NO CLOUDS BELOW 12,000 FEET WITH NO
       SIGNIFICANT WEATHER AND/OR OBSTRUCTIONS TO VISIBILITY.
       CURRENT SKY AND/OR WEATHER CONDITIONS ARE NOT AVAILABLE FOR
       CHILLICOTHE AND FARMINGTON.

MOZ001>031-035>038-043-044-053-054-272200-
...NORTHERN AND WESTERN MISSOURI...

CITY           SKY/WX    TMP DP  RH WIND       PRES   REMARKS
KANSAS CTY INT CLOUDY    90  77  65 S13       29.89F HX 103
KANSAS C DTWN  PTSUNNY   92  76  59 S8        29.87F HX 104
LEE`S SUMMIT   CLOUDY    90  75  61 S7        29.90F HX 100
ST JOSEPH      PTSUNNY   89  78  70 S10       29.87F HX 103
KIRKSVILLE     TSTM      86  77  74 SE14      29.91F HX  97

$$
MOZ066>068-077>081-088>096-101>105-272200-
...SOUTHWEST MISSOURI...

CITY           SKY/WX    TMP DP  RH WIND       PRES   REMARKS
SPRINGFIELD    MOSUNNY   92  73  53 W3        29.95S HX 100
JOPLIN         MOSUNNY   95  71  45 S10       29.93S HX 102

$$
MOZ032>034-039>042-045>050-055>058-069>072-272200-
...CENTRAL MISSOURI...

CITY           SKY/WX    TMP DP  RH WIND       PRES   REMARKS
COLUMBIA       MOSUNNY   91  76  61 S9        29.92F HX 103
JEFFERSON CITY MOSUNNY   93  72  50 S6        29.89F HX 101
ROLLA          SUNNY     92  74  55 W8        29.92F HX 101
SEDALIA        SUNNY     95  73  48 SW8       29.92F HX 104
OSAGE BEACH    SUNNY     93  73  52 CALM      29.92F HX 102

$$
MOZ051-052-059>065-272200-
...EAST CENTRAL MISSOURI...

CITY           SKY/WX    TMP DP  RH WIND       PRES   REMARKS
ST LOUIS INTL  PTSUNNY   93  77  59 NE8       29.90F HX 107
SPIRIT OF STL  PTSUNNY   90  81  74 CALM      29.88F HX 109
ST CHARLES     MOSUNNY   90  80  72 E7        29.88F HX 107

$$
MOZ072>076-082>087-097>100-106>115-272200-
...SOUTH CENTRAL AND SOUTHEAST MISSOURI...

CITY           SKY/WX    TMP DP  RH WIND       PRES   REMARKS
CAPE GIRARDEAU MOSUNNY   91  79  67 SW10      29.90F HX 107
FARMINGTON     FAIR      93  75  55 CALM      29.96F HX 104
POPLAR BLUFF   SUNNY     92  78  63 S7        29.90F HX 107
WEST PLAINS    MOSUNNY   93  74  53 SE6       29.97F HX 103

$$


USA.gov is the U.S. government's official web portal to all federal, state and local government web resources and services.